Location: Unspecified
(48.8656°N, 0.0000°E)
Time: 17:39:55
(UTC+00:00)

Vanguard 3 - Pass Details

Date: 20 June 2019
Orbit: 507 x 3264 km, 33.4° (Epoch: 20 July)

Event Time Altitude Azimuth Distance (km) Brightness Sun altitude
Rises 12:20:05 0° 230° (SW) 5,672 11.7 64.3°
Reaches altitude 10° 12:25:30 10° 218° (SW) 4,107 11.3 64.1°
Maximum altitude 12:32:25 21° 175° (S) 2,581 10.5 63.8°
Drops below altitude 10° 12:37:17 10° 129° (SE) 2,751 10.1 63.6°
Sets 12:40:02 0° 112° (ESE) 3,384 10.4 63.5°
